Year,Month,Day,Hour,Minute,Value (Times are PST for temperature in C)
2017,11,29,00,00,2.80
2017,11,29,00,01,2.80
2017,11,29,00,02,2.80
2017,11,29,00,03,2.70
2017,11,29,00,04,2.70
2017,11,29,00,05,2.70
2017,11,29,00,06,2.60
2017,11,29,00,07,2.60
2017,11,29,00,08,2.60
2017,11,29,00,09,2.60
2017,11,29,00,10,2.50
2017,11,29,00,11,2.50
2017,11,29,00,12,2.50
2017,11,29,00,13,2.50
2017,11,29,00,14,2.50
2017,11,29,00,15,2.50
2017,11,29,00,16,2.40
2017,11,29,00,17,2.40
2017,11,29,00,18,2.40
2017,11,29,00,19,2.40
2017,11,29,00,20,2.40
2017,11,29,00,21,2.30
2017,11,29,00,22,2.30
2017,11,29,00,23,2.30
2017,11,29,00,24,2.30
2017,11,29,00,25,2.30
2017,11,29,00,26,2.30
2017,11,29,00,27,2.20
2017,11,29,00,28,2.20
2017,11,29,00,29,2.20
2017,11,29,00,30,2.20
2017,11,29,00,31,2.20
2017,11,29,00,32,2.20
2017,11,29,00,33,2.20
2017,11,29,00,34,2.30
2017,11,29,00,35,2.30
2017,11,29,00,36,2.30
2017,11,29,00,37,2.30
2017,11,29,00,38,2.20
2017,11,29,00,39,2.20
2017,11,29,00,40,2.20
2017,11,29,00,41,2.20
2017,11,29,00,42,2.20
2017,11,29,00,43,2.20
2017,11,29,00,44,2.20
2017,11,29,00,45,2.20
2017,11,29,00,46,2.20
2017,11,29,00,47,2.20
2017,11,29,00,48,2.20
2017,11,29,00,49,2.20
2017,11,29,00,50,2.20
2017,11,29,00,51,2.10
2017,11,29,00,52,2.10
2017,11,29,00,53,2.10
2017,11,29,00,54,2.10
2017,11,29,00,55,2.10
2017,11,29,00,56,2.10
2017,11,29,00,57,2.20
2017,11,29,00,58,2.20
2017,11,29,00,59,2.20
2017,11,29,01,00,2.20
2017,11,29,01,01,2.20
2017,11,29,01,02,2.20
2017,11,29,01,03,2.20
2017,11,29,01,04,2.20
2017,11,29,01,05,2.20
2017,11,29,01,06,2.20
2017,11,29,01,07,2.20
2017,11,29,01,08,2.10
2017,11,29,01,09,2.10
2017,11,29,01,10,2.10
2017,11,29,01,11,2.10
2017,11,29,01,12,2.10
2017,11,29,01,13,2.10
2017,11,29,01,14,2.10
2017,11,29,01,15,2.10
2017,11,29,01,16,2.10
2017,11,29,01,17,2.10
2017,11,29,01,18,2.10
2017,11,29,01,19,2.10
2017,11,29,01,20,2.10
2017,11,29,01,21,2.10
2017,11,29,01,22,2.00
2017,11,29,01,23,2.00
2017,11,29,01,24,2.00
2017,11,29,01,25,2.00
2017,11,29,01,26,2.00
2017,11,29,01,27,2.00
2017,11,29,01,28,2.00
2017,11,29,01,29,2.00
2017,11,29,01,30,2.10
2017,11,29,01,31,2.10
2017,11,29,01,32,2.10
2017,11,29,01,33,2.10
2017,11,29,01,34,2.10
2017,11,29,01,35,2.10
2017,11,29,01,36,2.10
2017,11,29,01,37,2.10
2017,11,29,01,38,2.00
2017,11,29,01,39,2.00
2017,11,29,01,40,2.00
2017,11,29,01,41,2.00
2017,11,29,01,42,2.00
2017,11,29,01,43,2.00
2017,11,29,01,44,2.00
2017,11,29,01,45,2.00
2017,11,29,01,46,1.90
2017,11,29,01,47,1.90
2017,11,29,01,48,1.90
2017,11,29,01,49,1.90
2017,11,29,01,50,1.90
2017,11,29,01,51,1.90
2017,11,29,01,52,1.90
2017,11,29,01,53,1.80
2017,11,29,01,54,1.80
2017,11,29,01,55,1.80
2017,11,29,01,56,1.80
2017,11,29,01,57,1.80
2017,11,29,01,58,1.80
2017,11,29,01,59,1.80
2017,11,29,02,00,1.80
2017,11,29,02,01,1.80
2017,11,29,02,02,1.80
2017,11,29,02,03,1.80
2017,11,29,02,04,1.90
2017,11,29,02,05,1.90
2017,11,29,02,06,1.90
2017,11,29,02,07,1.90
2017,11,29,02,08,1.90
2017,11,29,02,09,1.90
2017,11,29,02,10,2.00
2017,11,29,02,11,2.00
2017,11,29,02,12,2.00
2017,11,29,02,13,2.00
2017,11,29,02,14,2.00
2017,11,29,02,15,1.90
2017,11,29,02,16,1.90
2017,11,29,02,17,1.90
2017,11,29,02,18,1.90
2017,11,29,02,19,1.90
2017,11,29,02,20,1.90
2017,11,29,02,21,1.90
2017,11,29,02,22,1.80
2017,11,29,02,23,1.80
2017,11,29,02,24,1.80
2017,11,29,02,25,1.80
2017,11,29,02,26,1.70
2017,11,29,02,27,1.70
2017,11,29,02,28,1.70
2017,11,29,02,29,1.70
2017,11,29,02,30,1.70
2017,11,29,02,31,1.70
2017,11,29,02,32,1.70
2017,11,29,02,33,1.70
2017,11,29,02,34,1.70
2017,11,29,02,35,1.70
2017,11,29,02,36,1.70
2017,11,29,02,37,1.70
2017,11,29,02,38,1.70
2017,11,29,02,39,1.70
2017,11,29,02,40,1.70
2017,11,29,02,41,1.70
2017,11,29,02,42,1.70
2017,11,29,02,43,1.70
2017,11,29,02,44,1.70
2017,11,29,02,45,1.60
2017,11,29,02,46,1.60
2017,11,29,02,47,1.60
2017,11,29,02,48,1.60
2017,11,29,02,49,1.60
2017,11,29,02,50,1.60
2017,11,29,02,51,1.60
2017,11,29,02,52,1.60
2017,11,29,02,53,1.60
2017,11,29,02,54,1.60
2017,11,29,02,55,1.60
2017,11,29,02,56,1.50
2017,11,29,02,57,1.50
2017,11,29,02,58,1.40
2017,11,29,02,59,1.40
2017,11,29,03,00,1.40
2017,11,29,03,01,1.40
2017,11,29,03,02,1.40
2017,11,29,03,03,1.40
2017,11,29,03,04,1.40
2017,11,29,03,05,1.40
2017,11,29,03,06,1.40
2017,11,29,03,07,1.40
2017,11,29,03,08,1.40
2017,11,29,03,09,1.40
2017,11,29,03,10,1.30
2017,11,29,03,11,1.30
2017,11,29,03,12,1.30
2017,11,29,03,13,1.30
2017,11,29,03,14,1.40
2017,11,29,03,15,1.40
2017,11,29,03,16,1.50
2017,11,29,03,17,1.50
2017,11,29,03,18,1.50
2017,11,29,03,19,1.50
2017,11,29,03,20,1.50
2017,11,29,03,21,1.60
2017,11,29,03,22,1.60
2017,11,29,03,23,1.60
2017,11,29,03,24,1.60
2017,11,29,03,25,1.60
2017,11,29,03,26,1.50
2017,11,29,03,27,1.50
2017,11,29,03,28,1.50
2017,11,29,03,29,1.50
2017,11,29,03,30,1.50
2017,11,29,03,31,1.50
2017,11,29,03,32,1.50
2017,11,29,03,33,1.50
2017,11,29,03,34,1.40
2017,11,29,03,35,1.40
2017,11,29,03,36,1.40
2017,11,29,03,37,1.40
2017,11,29,03,38,1.40
2017,11,29,03,39,1.40
2017,11,29,03,40,1.40
2017,11,29,03,41,1.40
2017,11,29,03,42,1.40
2017,11,29,03,43,1.40
2017,11,29,03,44,1.40
2017,11,29,03,45,1.40
2017,11,29,03,46,1.40
2017,11,29,03,47,1.40
2017,11,29,03,48,1.40
2017,11,29,03,49,1.50
2017,11,29,03,50,1.50
2017,11,29,03,51,1.50
2017,11,29,03,52,1.60
2017,11,29,03,53,1.60
2017,11,29,03,54,1.70
2017,11,29,03,55,1.70
2017,11,29,03,56,1.70
2017,11,29,03,57,1.70
2017,11,29,03,58,1.70
2017,11,29,03,59,1.70
2017,11,29,04,00,1.70
2017,11,29,04,01,1.80
2017,11,29,04,02,1.80
2017,11,29,04,03,1.80
2017,11,29,04,04,1.80
2017,11,29,04,05,1.80
2017,11,29,04,06,1.80
2017,11,29,04,07,1.80
2017,11,29,04,08,1.80
2017,11,29,04,09,1.80
2017,11,29,04,10,1.80
2017,11,29,04,11,1.80
2017,11,29,04,12,1.80
2017,11,29,04,13,1.80
2017,11,29,04,14,1.80
2017,11,29,04,15,1.80
2017,11,29,04,16,1.80
2017,11,29,04,17,1.90
2017,11,29,04,18,1.80
2017,11,29,04,19,1.90
2017,11,29,04,20,1.90
2017,11,29,04,21,1.90
2017,11,29,04,22,1.90
2017,11,29,04,23,1.90
2017,11,29,04,24,1.90
2017,11,29,04,25,1.90
2017,11,29,04,26,1.90
2017,11,29,04,27,1.90
2017,11,29,04,28,1.90
2017,11,29,04,29,1.90
2017,11,29,04,30,1.90
2017,11,29,04,31,1.90
2017,11,29,04,32,1.90
2017,11,29,04,33,1.90
2017,11,29,04,34,1.90
2017,11,29,04,35,1.90
2017,11,29,04,36,1.90
2017,11,29,04,37,1.90
2017,11,29,04,38,1.80
2017,11,29,04,39,1.80
2017,11,29,04,40,1.80
2017,11,29,04,41,1.80
2017,11,29,04,42,1.80
2017,11,29,04,43,1.90
2017,11,29,04,44,1.90
2017,11,29,04,45,1.90
2017,11,29,04,46,1.90
2017,11,29,04,47,1.90
2017,11,29,04,48,1.90
2017,11,29,04,49,1.90
2017,11,29,04,50,1.90
2017,11,29,04,51,2.00
2017,11,29,04,52,2.10
2017,11,29,04,53,2.10
2017,11,29,04,54,2.10
2017,11,29,04,55,2.20
2017,11,29,04,56,2.20
2017,11,29,04,57,2.20
2017,11,29,04,58,2.20
2017,11,29,04,59,2.20
2017,11,29,05,00,2.20
2017,11,29,05,01,2.20
2017,11,29,05,02,2.30
2017,11,29,05,03,2.30
2017,11,29,05,04,2.30
2017,11,29,05,05,2.30
2017,11,29,05,06,2.30
2017,11,29,05,07,2.30
2017,11,29,05,08,2.30
2017,11,29,05,09,2.40
2017,11,29,05,10,2.40
2017,11,29,05,11,2.40
2017,11,29,05,12,2.40
2017,11,29,05,13,2.40
2017,11,29,05,14,2.40
2017,11,29,05,15,2.40
2017,11,29,05,16,2.40
2017,11,29,05,17,2.40
2017,11,29,05,18,2.40
2017,11,29,05,19,2.40
2017,11,29,05,20,2.40
2017,11,29,05,21,2.40
2017,11,29,05,22,2.40
2017,11,29,05,23,2.40
2017,11,29,05,24,2.40
2017,11,29,05,25,2.40
2017,11,29,05,26,2.40
2017,11,29,05,27,2.40
2017,11,29,05,28,2.40
2017,11,29,05,29,2.40
2017,11,29,05,30,2.40
2017,11,29,05,31,2.40
2017,11,29,05,32,2.40
2017,11,29,05,33,2.40
2017,11,29,05,34,2.40
2017,11,29,05,35,2.40
2017,11,29,05,36,2.50
2017,11,29,05,37,2.50
2017,11,29,05,38,2.50
2017,11,29,05,39,2.50
2017,11,29,05,40,2.50
2017,11,29,05,41,2.50
2017,11,29,05,42,2.50
2017,11,29,05,43,2.50
2017,11,29,05,44,2.50
2017,11,29,05,45,2.50
2017,11,29,05,46,2.50
2017,11,29,05,47,2.50
2017,11,29,05,48,2.50
2017,11,29,05,49,2.50
2017,11,29,05,50,2.60
2017,11,29,05,51,2.60
2017,11,29,05,52,2.60
2017,11,29,05,53,2.60
2017,11,29,05,54,2.60
2017,11,29,05,55,2.60
2017,11,29,05,56,2.60
2017,11,29,05,57,2.70
2017,11,29,05,58,2.70
2017,11,29,05,59,2.70
2017,11,29,06,00,2.70
2017,11,29,06,01,2.70
2017,11,29,06,02,2.70
2017,11,29,06,03,2.70
2017,11,29,06,04,2.70
2017,11,29,06,05,2.70
2017,11,29,06,06,2.70
2017,11,29,06,07,2.70
2017,11,29,06,08,2.70
2017,11,29,06,09,2.70
2017,11,29,06,10,2.70
2017,11,29,06,11,2.70
2017,11,29,06,12,2.70
2017,11,29,06,13,2.70
2017,11,29,06,14,2.70
2017,11,29,06,15,2.80
2017,11,29,06,16,2.80
2017,11,29,06,17,2.80
2017,11,29,06,18,2.80
2017,11,29,06,19,2.80
2017,11,29,06,20,2.80
2017,11,29,06,21,2.80
2017,11,29,06,22,2.90
2017,11,29,06,23,2.90
2017,11,29,06,24,2.90
2017,11,29,06,25,2.90
2017,11,29,06,26,2.90
2017,11,29,06,27,2.90
2017,11,29,06,28,2.90
2017,11,29,06,29,2.90
2017,11,29,06,30,2.90
2017,11,29,06,31,2.90
2017,11,29,06,32,2.90
2017,11,29,06,33,2.90
2017,11,29,06,34,2.90
2017,11,29,06,35,3.00
2017,11,29,06,36,3.00
2017,11,29,06,37,3.00
2017,11,29,06,38,3.00
2017,11,29,06,39,3.00
2017,11,29,06,40,3.00
2017,11,29,06,41,3.10
2017,11,29,06,42,3.10
2017,11,29,06,43,3.10
2017,11,29,06,44,3.10
2017,11,29,06,45,3.10
2017,11,29,06,46,3.10
2017,11,29,06,47,3.20
2017,11,29,06,48,3.20
2017,11,29,06,49,3.20
2017,11,29,06,50,3.20
2017,11,29,06,51,3.20
2017,11,29,06,52,3.20
2017,11,29,06,53,3.30
2017,11,29,06,54,3.30
2017,11,29,06,55,3.30
2017,11,29,06,56,3.30
2017,11,29,06,57,3.30
2017,11,29,06,58,3.30
2017,11,29,06,59,3.30
2017,11,29,07,00,3.30
2017,11,29,07,01,3.30
2017,11,29,07,02,3.30
2017,11,29,07,03,3.30
2017,11,29,07,04,3.30
2017,11,29,07,05,3.30
2017,11,29,07,06,3.30
2017,11,29,07,07,3.20
2017,11,29,07,08,3.20
2017,11,29,07,09,3.20
2017,11,29,07,10,3.20
2017,11,29,07,11,3.20
2017,11,29,07,12,3.20
2017,11,29,07,13,3.20
2017,11,29,07,14,3.20
2017,11,29,07,15,3.20
2017,11,29,07,16,3.20
2017,11,29,07,17,3.20
2017,11,29,07,18,3.20
2017,11,29,07,19,3.20
2017,11,29,07,20,3.20
2017,11,29,07,21,3.20
2017,11,29,07,22,3.20
2017,11,29,07,23,3.20
2017,11,29,07,24,3.20
2017,11,29,07,25,3.20
2017,11,29,07,26,3.20
2017,11,29,07,27,3.20
2017,11,29,07,28,3.20
2017,11,29,07,29,3.20
2017,11,29,07,30,3.20
2017,11,29,07,31,3.20
2017,11,29,07,32,3.20
2017,11,29,07,33,3.20
2017,11,29,07,34,3.20
2017,11,29,07,35,3.20
2017,11,29,07,36,3.20
2017,11,29,07,37,3.20
2017,11,29,07,38,3.20
2017,11,29,07,39,3.20
2017,11,29,07,40,3.20
2017,11,29,07,41,3.20
2017,11,29,07,42,3.20
2017,11,29,07,43,3.20
2017,11,29,07,44,3.20
2017,11,29,07,45,3.20
2017,11,29,07,46,3.20
2017,11,29,07,47,3.20
2017,11,29,07,48,3.20
2017,11,29,07,49,3.20
2017,11,29,07,50,3.10
2017,11,29,07,51,3.10
2017,11,29,07,52,3.10
2017,11,29,07,53,3.00
2017,11,29,07,54,3.00
2017,11,29,07,55,3.00
2017,11,29,07,56,3.00
2017,11,29,07,57,3.00
2017,11,29,07,58,3.00
2017,11,29,07,59,3.10
2017,11,29,08,00,3.10
2017,11,29,08,01,3.10
2017,11,29,08,02,3.20
2017,11,29,08,03,3.20
2017,11,29,08,04,3.30
2017,11,29,08,05,3.30
2017,11,29,08,06,3.30
2017,11,29,08,07,3.40
2017,11,29,08,08,3.40
2017,11,29,08,09,3.40
2017,11,29,08,10,3.40
2017,11,29,08,11,3.50
2017,11,29,08,12,3.50
2017,11,29,08,13,3.50
2017,11,29,08,14,3.60
2017,11,29,08,15,3.60
2017,11,29,08,16,3.60
2017,11,29,08,17,3.60
2017,11,29,08,18,3.60
2017,11,29,08,19,3.60
2017,11,29,08,20,3.60
2017,11,29,08,21,3.70
2017,11,29,08,22,3.70
2017,11,29,08,23,3.70
2017,11,29,08,24,3.70
2017,11,29,08,25,3.70
2017,11,29,08,26,3.70
2017,11,29,08,27,3.70
2017,11,29,08,28,3.80
2017,11,29,08,29,3.80
2017,11,29,08,30,3.80
2017,11,29,08,31,3.80
2017,11,29,08,32,3.80
2017,11,29,08,33,3.80
2017,11,29,08,34,3.90
2017,11,29,08,35,3.90
2017,11,29,08,36,3.90
2017,11,29,08,37,4.00
2017,11,29,08,38,4.00
2017,11,29,08,39,4.00
2017,11,29,08,40,4.10
2017,11,29,08,41,4.10
2017,11,29,08,42,4.20
2017,11,29,08,43,4.20
2017,11,29,08,44,4.20
2017,11,29,08,45,4.20
2017,11,29,08,46,4.30
2017,11,29,08,47,4.30
2017,11,29,08,48,4.30
2017,11,29,08,49,4.40
2017,11,29,08,50,4.40
2017,11,29,08,51,4.40
2017,11,29,08,52,4.40
2017,11,29,08,53,4.50
2017,11,29,08,54,4.50
2017,11,29,08,55,4.50
2017,11,29,08,56,4.50
2017,11,29,08,57,4.50
2017,11,29,08,58,4.50
2017,11,29,08,59,4.50
2017,11,29,09,00,4.50
2017,11,29,09,01,4.60
2017,11,29,09,02,4.60
2017,11,29,09,03,4.60
2017,11,29,09,04,4.60
2017,11,29,09,05,4.70
2017,11,29,09,06,4.70
2017,11,29,09,07,4.70
2017,11,29,09,08,4.70
2017,11,29,09,09,4.70
2017,11,29,09,10,4.80
2017,11,29,09,11,4.80
2017,11,29,09,12,4.80
2017,11,29,09,13,4.80
2017,11,29,09,14,4.80
2017,11,29,09,15,4.80
2017,11,29,09,16,4.90
2017,11,29,09,17,4.90
2017,11,29,09,18,4.90
2017,11,29,09,19,5.00
2017,11,29,09,20,5.00
2017,11,29,09,21,5.10
2017,11,29,09,22,5.10
2017,11,29,09,23,5.10
2017,11,29,09,24,5.10
2017,11,29,09,25,5.10
2017,11,29,09,26,5.10
2017,11,29,09,27,5.20
2017,11,29,09,28,5.20
2017,11,29,09,29,5.20
2017,11,29,09,30,5.20
2017,11,29,09,31,5.20
2017,11,29,09,32,5.20
2017,11,29,09,33,5.20
2017,11,29,09,34,5.20
2017,11,29,09,35,5.20
2017,11,29,09,36,5.20
2017,11,29,09,37,5.30
2017,11,29,09,38,5.30
2017,11,29,09,39,5.30
2017,11,29,09,40,5.30
2017,11,29,09,41,5.30
2017,11,29,09,42,5.40
2017,11,29,09,43,5.40
2017,11,29,09,44,5.40
2017,11,29,09,45,5.50
2017,11,29,09,46,5.50
2017,11,29,09,47,5.60
2017,11,29,09,48,5.70
2017,11,29,09,49,5.70
2017,11,29,09,50,5.80
2017,11,29,09,51,5.80
2017,11,29,09,52,5.90
2017,11,29,09,53,6.00
2017,11,29,09,54,6.10
2017,11,29,09,55,6.10
2017,11,29,09,56,6.20
2017,11,29,09,57,6.20
2017,11,29,09,58,6.30
2017,11,29,09,59,6.30
2017,11,29,10,00,6.40
2017,11,29,10,01,6.40
2017,11,29,10,02,6.40
2017,11,29,10,03,6.50
2017,11,29,10,04,6.50
2017,11,29,10,05,6.50
2017,11,29,10,06,6.60
2017,11,29,10,07,6.60
2017,11,29,10,08,6.60
2017,11,29,10,09,6.60
2017,11,29,10,10,6.60
2017,11,29,10,11,6.60
2017,11,29,10,12,6.70
2017,11,29,10,13,6.70
2017,11,29,10,14,6.70
2017,11,29,10,15,6.70
2017,11,29,10,16,6.70
2017,11,29,10,17,6.70
2017,11,29,10,18,6.70
2017,11,29,10,19,6.70
2017,11,29,10,20,6.70
2017,11,29,10,21,6.70
2017,11,29,10,22,6.70
2017,11,29,10,23,6.70
2017,11,29,10,24,6.70
2017,11,29,10,25,6.70
2017,11,29,10,26,6.70
2017,11,29,10,27,6.70
2017,11,29,10,28,6.70
2017,11,29,10,29,6.70
2017,11,29,10,30,6.70
2017,11,29,10,31,6.70
2017,11,29,10,32,6.70
2017,11,29,10,33,6.70
2017,11,29,10,34,6.70
2017,11,29,10,35,6.70
2017,11,29,10,36,6.70
2017,11,29,10,37,6.80
2017,11,29,10,38,6.80
2017,11,29,10,39,6.80
2017,11,29,10,40,6.80
2017,11,29,10,41,6.80
2017,11,29,10,42,6.80
2017,11,29,10,43,6.80
2017,11,29,10,44,6.80
2017,11,29,10,45,6.80
2017,11,29,10,46,6.80
2017,11,29,10,47,6.80
2017,11,29,10,48,6.90
2017,11,29,10,49,6.90
2017,11,29,10,50,6.90
2017,11,29,10,51,6.90
2017,11,29,10,52,6.90
2017,11,29,10,53,6.90
2017,11,29,10,54,6.90
2017,11,29,10,55,6.90
2017,11,29,10,56,6.90
2017,11,29,10,57,6.90
2017,11,29,10,58,6.90
2017,11,29,10,59,6.90
2017,11,29,11,00,6.90
2017,11,29,11,01,6.90
2017,11,29,11,02,6.90
2017,11,29,11,03,6.90
2017,11,29,11,04,6.90
2017,11,29,11,05,6.90
2017,11,29,11,06,6.90
2017,11,29,11,07,6.90
2017,11,29,11,08,6.90
2017,11,29,11,09,6.90
2017,11,29,11,10,6.90
2017,11,29,11,11,6.90
2017,11,29,11,12,6.90
2017,11,29,11,13,6.90
2017,11,29,11,14,6.90
2017,11,29,11,15,6.90
2017,11,29,11,16,6.90
2017,11,29,11,17,6.90
2017,11,29,11,18,7.00
2017,11,29,11,19,7.00
2017,11,29,11,20,7.00
2017,11,29,11,21,7.00
2017,11,29,11,22,7.00
2017,11,29,11,23,7.00
2017,11,29,11,24,7.00
2017,11,29,11,25,7.00
2017,11,29,11,26,7.00
2017,11,29,11,27,7.00
2017,11,29,11,28,7.00
2017,11,29,11,29,7.00
2017,11,29,11,30,7.00
2017,11,29,11,31,7.00
2017,11,29,11,32,7.00
2017,11,29,11,33,7.00
2017,11,29,11,34,7.00
2017,11,29,11,35,7.00
2017,11,29,11,36,7.10
2017,11,29,11,37,7.10
2017,11,29,11,38,7.10
2017,11,29,11,39,7.10
2017,11,29,11,40,7.10
2017,11,29,11,41,7.10
2017,11,29,11,42,7.10
2017,11,29,11,43,7.10
2017,11,29,11,44,7.10
2017,11,29,11,45,7.10
2017,11,29,11,46,7.10
2017,11,29,11,47,7.10
2017,11,29,11,48,7.10
2017,11,29,11,49,7.10
2017,11,29,11,50,7.10
2017,11,29,11,51,7.10
2017,11,29,11,52,7.10
2017,11,29,11,53,7.10
2017,11,29,11,54,7.20
2017,11,29,11,55,7.20
2017,11,29,11,56,7.20
2017,11,29,11,57,7.20
2017,11,29,11,58,7.20
2017,11,29,11,59,7.20
2017,11,29,12,00,7.20
2017,11,29,12,01,7.20
2017,11,29,12,02,7.20
2017,11,29,12,03,7.20
2017,11,29,12,04,7.20
2017,11,29,12,05,7.20
2017,11,29,12,06,7.30
2017,11,29,12,07,7.30
2017,11,29,12,08,7.30
2017,11,29,12,09,7.30
2017,11,29,12,10,7.30
2017,11,29,12,11,7.30
2017,11,29,12,12,7.40
2017,11,29,12,13,7.40
2017,11,29,12,14,7.40
2017,11,29,12,15,7.40
2017,11,29,12,16,7.40
2017,11,29,12,17,7.40
2017,11,29,12,18,7.40
2017,11,29,12,19,7.40
2017,11,29,12,20,7.40
2017,11,29,12,21,7.50
2017,11,29,12,22,7.50
2017,11,29,12,23,7.50
2017,11,29,12,24,7.50
2017,11,29,12,25,7.50
2017,11,29,12,26,7.60
2017,11,29,12,27,7.60
2017,11,29,12,28,7.60
2017,11,29,12,29,7.60
2017,11,29,12,30,7.60
2017,11,29,12,31,7.60
2017,11,29,12,32,7.60
2017,11,29,12,33,7.60
2017,11,29,12,34,7.60
2017,11,29,12,35,7.60
2017,11,29,12,36,7.60
2017,11,29,12,37,7.60
2017,11,29,12,38,7.60
2017,11,29,12,39,7.60
2017,11,29,12,40,7.60
2017,11,29,12,41,7.60
2017,11,29,12,42,7.60
2017,11,29,12,43,7.60
2017,11,29,12,44,7.60
2017,11,29,12,45,7.60
2017,11,29,12,46,7.60
2017,11,29,12,47,7.60
2017,11,29,12,48,7.60
2017,11,29,12,49,7.60
2017,11,29,12,50,7.70
2017,11,29,12,51,7.70
2017,11,29,12,52,7.70
2017,11,29,12,53,7.70
2017,11,29,12,54,7.70
2017,11,29,12,55,7.70
2017,11,29,12,56,7.70
2017,11,29,12,57,7.70
2017,11,29,12,58,7.70
2017,11,29,12,59,7.70
2017,11,29,13,00,7.70
2017,11,29,13,01,7.70
2017,11,29,13,02,7.80
2017,11,29,13,03,7.80
2017,11,29,13,04,7.80
2017,11,29,13,05,7.80
2017,11,29,13,06,7.80
2017,11,29,13,07,7.80
2017,11,29,13,08,7.90
2017,11,29,13,09,7.90
2017,11,29,13,10,7.90
2017,11,29,13,11,7.90
2017,11,29,13,12,7.90
2017,11,29,13,13,8.00
2017,11,29,13,14,8.00
2017,11,29,13,15,8.00
2017,11,29,13,16,8.10
2017,11,29,13,17,8.10
2017,11,29,13,18,8.10
2017,11,29,13,19,8.10
2017,11,29,13,20,8.10
2017,11,29,13,21,8.10
2017,11,29,13,22,8.10
2017,11,29,13,23,8.10
2017,11,29,13,24,8.10
2017,11,29,13,25,8.10
2017,11,29,13,26,8.10
2017,11,29,13,27,8.10
2017,11,29,13,28,8.10
2017,11,29,13,29,8.10
2017,11,29,13,30,8.10
2017,11,29,13,31,8.20
2017,11,29,13,32,8.20
2017,11,29,13,33,8.20
2017,11,29,13,34,8.20
2017,11,29,13,35,8.20
2017,11,29,13,36,8.20
2017,11,29,13,37,8.20
2017,11,29,13,38,8.20
2017,11,29,13,39,8.20
2017,11,29,13,40,8.20
2017,11,29,13,41,8.20
2017,11,29,13,42,8.20
2017,11,29,13,43,8.20
2017,11,29,13,44,8.20
2017,11,29,13,45,8.20
2017,11,29,13,46,8.20
2017,11,29,13,47,8.20
2017,11,29,13,48,8.20
2017,11,29,13,49,8.20
2017,11,29,13,50,8.20
2017,11,29,13,51,8.20
2017,11,29,13,52,8.20
2017,11,29,13,53,8.20
2017,11,29,13,54,8.20
2017,11,29,13,55,8.20
2017,11,29,13,56,8.20
2017,11,29,13,57,8.20
2017,11,29,13,58,8.20
2017,11,29,13,59,8.20
2017,11,29,14,00,8.20
2017,11,29,14,01,8.20
2017,11,29,14,02,8.20
2017,11,29,14,03,8.20
2017,11,29,14,04,8.20
2017,11,29,14,05,8.20
2017,11,29,14,06,8.20
2017,11,29,14,07,8.20
2017,11,29,14,08,8.20
2017,11,29,14,09,8.10
2017,11,29,14,10,8.20
2017,11,29,14,11,8.20
2017,11,29,14,12,8.20
2017,11,29,14,13,8.20
2017,11,29,14,14,8.20
2017,11,29,14,15,8.20
2017,11,29,14,16,8.20
2017,11,29,14,17,8.20
2017,11,29,14,18,8.20
2017,11,29,14,19,8.20
2017,11,29,14,20,8.20
2017,11,29,14,21,8.20
2017,11,29,14,22,8.20
2017,11,29,14,23,8.20
2017,11,29,14,24,8.20
2017,11,29,14,25,8.20
2017,11,29,14,26,8.20
2017,11,29,14,27,8.20
2017,11,29,14,28,8.20
2017,11,29,14,29,8.20
2017,11,29,14,30,8.20
2017,11,29,14,31,8.20
2017,11,29,14,32,8.20
2017,11,29,14,33,8.20
2017,11,29,14,34,8.20
2017,11,29,14,35,8.20
2017,11,29,14,36,8.20
2017,11,29,14,37,8.20
2017,11,29,14,38,8.20
2017,11,29,14,39,8.20
2017,11,29,14,40,8.20
2017,11,29,14,41,8.20
2017,11,29,14,42,8.20
2017,11,29,14,43,8.20
2017,11,29,14,44,8.20
2017,11,29,14,45,8.20
2017,11,29,14,46,8.20
2017,11,29,14,47,8.10
2017,11,29,14,48,8.10
2017,11,29,14,49,8.10
2017,11,29,14,50,8.10
2017,11,29,14,51,8.10
2017,11,29,14,52,8.10
2017,11,29,14,53,8.10
2017,11,29,14,54,8.10
2017,11,29,14,55,8.10
2017,11,29,14,56,8.10
2017,11,29,14,57,8.10
2017,11,29,14,58,8.10
2017,11,29,14,59,8.10
2017,11,29,15,00,8.10
2017,11,29,15,01,8.10
2017,11,29,15,02,8.10
2017,11,29,15,03,8.10
2017,11,29,15,04,8.10
2017,11,29,15,05,8.00
2017,11,29,15,06,8.00
2017,11,29,15,07,8.00
2017,11,29,15,08,8.00
2017,11,29,15,09,8.00
2017,11,29,15,10,7.90
2017,11,29,15,11,7.90
2017,11,29,15,12,7.90
2017,11,29,15,13,7.90
2017,11,29,15,14,7.90
2017,11,29,15,15,7.90
2017,11,29,15,16,7.90
2017,11,29,15,17,7.90
2017,11,29,15,18,8.00
2017,11,29,15,19,8.00
2017,11,29,15,20,8.00
2017,11,29,15,21,8.00
2017,11,29,15,22,8.00
2017,11,29,15,23,8.00
2017,11,29,15,24,7.90
2017,11,29,15,25,7.90
2017,11,29,15,26,7.90
2017,11,29,15,27,7.90
2017,11,29,15,28,7.90
2017,11,29,15,29,7.90
2017,11,29,15,30,7.90
2017,11,29,15,31,7.90
2017,11,29,15,32,7.90
2017,11,29,15,33,7.90
2017,11,29,15,34,7.90
2017,11,29,15,35,7.90
2017,11,29,15,36,7.90
2017,11,29,15,37,7.90
2017,11,29,15,38,7.90
2017,11,29,15,39,7.90
2017,11,29,15,40,7.90
2017,11,29,15,41,7.90
2017,11,29,15,42,7.90
2017,11,29,15,43,7.80
2017,11,29,15,44,7.80
2017,11,29,15,45,7.80
2017,11,29,15,46,7.80
2017,11,29,15,47,7.80
2017,11,29,15,48,7.80
2017,11,29,15,49,7.80
2017,11,29,15,50,7.80
2017,11,29,15,51,7.80
2017,11,29,15,52,7.80
2017,11,29,15,53,7.80
2017,11,29,15,54,7.80
2017,11,29,15,55,7.80
2017,11,29,15,56,7.80
2017,11,29,15,57,7.80
2017,11,29,15,58,7.80
2017,11,29,15,59,7.80
2017,11,29,16,00,7.80
2017,11,29,16,01,7.80
2017,11,29,16,02,7.80
2017,11,29,16,03,7.80
2017,11,29,16,04,7.80
2017,11,29,16,05,7.80
2017,11,29,16,06,7.80
2017,11,29,16,07,7.80
2017,11,29,16,08,7.80
2017,11,29,16,09,7.80
2017,11,29,16,10,7.80
2017,11,29,16,11,7.80
2017,11,29,16,12,7.80
2017,11,29,16,13,7.80
2017,11,29,16,14,7.80
2017,11,29,16,15,7.80
2017,11,29,16,16,7.80
2017,11,29,16,17,7.80
2017,11,29,16,18,7.80
2017,11,29,16,19,7.80
2017,11,29,16,20,7.80
2017,11,29,16,21,7.80
2017,11,29,16,22,7.80
2017,11,29,16,23,7.80
2017,11,29,16,24,7.80
2017,11,29,16,25,7.90
2017,11,29,16,26,7.90
2017,11,29,16,27,7.90
2017,11,29,16,28,7.90
2017,11,29,16,29,7.90
2017,11,29,16,30,7.90
2017,11,29,16,31,7.90
2017,11,29,16,32,7.90
2017,11,29,16,33,7.90
2017,11,29,16,34,7.90
2017,11,29,16,35,7.90
2017,11,29,16,36,7.90
2017,11,29,16,37,7.90
2017,11,29,16,38,7.90
2017,11,29,16,39,7.90
2017,11,29,16,40,7.90
2017,11,29,16,41,7.90
2017,11,29,16,42,7.90
2017,11,29,16,43,7.90
2017,11,29,16,44,7.90
2017,11,29,16,45,7.90
2017,11,29,16,46,7.90
2017,11,29,16,47,7.90
2017,11,29,16,48,7.90
2017,11,29,16,49,7.90
2017,11,29,16,50,7.90
2017,11,29,16,51,7.90
2017,11,29,16,52,7.90
2017,11,29,16,53,7.90
2017,11,29,16,54,7.90
2017,11,29,16,55,7.90
2017,11,29,16,56,7.90
2017,11,29,16,57,7.90
2017,11,29,16,58,7.90
2017,11,29,16,59,7.90
2017,11,29,17,00,7.90
2017,11,29,17,01,7.90
2017,11,29,17,02,7.90
2017,11,29,17,03,7.90
2017,11,29,17,04,7.90
2017,11,29,17,05,7.90
2017,11,29,17,06,7.90
2017,11,29,17,07,7.90
2017,11,29,17,08,7.90
2017,11,29,17,09,7.90
2017,11,29,17,10,7.90
2017,11,29,17,11,7.90
2017,11,29,17,12,7.90
2017,11,29,17,13,7.90
2017,11,29,17,14,7.90
2017,11,29,17,15,7.90
2017,11,29,17,16,7.90
2017,11,29,17,17,7.80
2017,11,29,17,18,7.80
2017,11,29,17,19,7.80
2017,11,29,17,20,7.80
2017,11,29,17,21,7.80
2017,11,29,17,22,7.80
2017,11,29,17,23,7.80
2017,11,29,17,24,7.80
2017,11,29,17,25,7.80
2017,11,29,17,26,7.80
2017,11,29,17,27,7.80
2017,11,29,17,28,7.80
2017,11,29,17,29,7.80
2017,11,29,17,30,7.80
2017,11,29,17,31,7.80
2017,11,29,17,32,7.80
2017,11,29,17,33,7.80
2017,11,29,17,34,7.90
2017,11,29,17,35,7.90
2017,11,29,17,36,7.90
2017,11,29,17,37,7.90
2017,11,29,17,38,7.90
2017,11,29,17,39,7.90
2017,11,29,17,40,7.90
2017,11,29,17,41,7.90
2017,11,29,17,42,7.90
2017,11,29,17,43,7.90
2017,11,29,17,44,7.90
2017,11,29,17,45,7.90
2017,11,29,17,46,7.90
2017,11,29,17,47,7.90
2017,11,29,17,48,7.90
2017,11,29,17,49,7.90
2017,11,29,17,50,7.90
2017,11,29,17,51,7.90
2017,11,29,17,52,7.90
2017,11,29,17,53,7.90
2017,11,29,17,54,7.90
2017,11,29,17,55,7.90
2017,11,29,17,56,7.90
2017,11,29,17,57,7.90
2017,11,29,17,58,7.90
2017,11,29,17,59,8.00
2017,11,29,18,00,8.00
2017,11,29,18,01,8.00
2017,11,29,18,02,8.00
2017,11,29,18,03,8.00
2017,11,29,18,04,8.00
2017,11,29,18,05,8.00
2017,11,29,18,06,8.00